Regional Weather Roundup
Issued by NWS

Home | Current Version | Previous Version | Text Only | Print | Product List | Glossary On
Versions: 1 2 3 4 5 6 7 8 9 10 11 12 13 14 15 16 17 18 19 20 21 22 23 24 25 26 27 28 29 30 31 32 33 34 35 36 37 38 39 40 41 42 43 44 45 46 47 48 49 50
000
ASUS43 KMPX 260110
RWRMN
WEATHER ROUNDUP FOR MINNESOTA
NATIONAL WEATHER SERVICE TWIN CITIES/CHANHASSEN MN
800 PM CDT WED MAY 25 2016


NOTE: "FAIR" INDICATES FEW OR NO CLOUDS BELOW 12,000 FEET WITH NO
SIGNIFICANT WEATHER AND/OR OBSTRUCTIONS TO VISIBILITY. N/A MEANS
CURRENT SKY AND/OR WEATHER CONDITIONS ARE NOT AVAILABLE.

MNZ060>063-068>070-260200-
   Twin Cities Metro

CITY           SKY/WX    TMP DP  RH WIND       PRES   REMARKS
TWIN CITIES    PTCLDY    74  62  66 NE6       29.80R
ST PAUL        CLEAR     73  63  70 CALM      29.81R
CRYSTAL        MOCLDY    74  62  66 E7        29.79R
BLAINE         PTCLDY    73  64  73 E5        29.81R
EDEN PRAIRIE   CLEAR     75  64  68 E6        29.79R
SOUTH ST PAUL  CLEAR     73  63  69 NE5       29.80S
LAKE ELMO      FAIR      70  64  83 E3        29.83R
$$
MNZ001>005-007-008-013>017-022>024-027-028-260200-
   Northwest Minnesota

CITY           SKY/WX    TMP DP  RH WIND       PRES   REMARKS
BEMIDJI        CLOUDY    62  56  83 SE17      29.76S
HALLOCK        RAIN      59  57  94 NE13      29.69F
ROSEAU         RAIN      59  54  82 E21G28    29.73F
WARROAD        HVY RAIN  59  55  88 E21       29.77F
THIEF RVR FALL CLOUDY    61  57  88 E15       29.68F
CROOKSTON      PTCLDY    63  63 100 SW14      29.66S
FOSSTON        MOCLDY    64  61  88 S15       29.71S
DETROIT LAKES  CLEAR     66  59  77 SW7       29.76S
MOORHEAD       PTCLDY    64  59  82 W8        29.74R
PARK RAPIDS    CLOUDY    65  60  84 E6        29.78R
MAHNOMEN       FAIR      64  60  86 SW14      29.72S
$$
MNZ006-009>011-018-025>026-260200-
   North Central Minnesota

CITY           SKY/WX    TMP DP  RH WIND       PRES   REMARKS
BAUDETTE       LGT RAIN  59  57  93 E15       29.78F FOG
FLAG ISLAND    RAIN      59  57  94 E10       29.80F
INTL FALLS     LGT RAIN  60  53  77 E15       29.81F
WASKISH        LGT RAIN  61  57  88 E13       29.77F
BIG FORK       CLOUDY    61  55  82 SE8       29.82S
LONGVILLE      CLOUDY    61  55  82 SE9       29.81R
GRAND RAPIDS   MOCLDY    57  53  86 E9        29.86R
CRANE LAKE     CLOUDY    61  52  72 CALM      29.88F
ORR            CLOUDY    61  52  72 SE6       29.83F
COOK           CLOUDY    61  54  77 SE9       29.86F
WALKER         CLOUDY    61  55  82 SE8       29.79S
$$
MNZ012-019>021-037-260200-
   Northeast Minnesota

CITY           SKY/WX    TMP DP  RH WIND       PRES   REMARKS
DULUTH         CLOUDY    51  48  89 E21G28    29.90R
ELY            CLOUDY    57  48  72 E9        29.91F
HIBBING        CLOUDY    54  52  93 E8        29.86F
EVELETH        MOCLDY    57  52  82 E6        29.89F
DULUTH HARBOR  CLOUDY    45  43  93 NE18      29.92F
TWO HARBORS    CLOUDY    54  48  82 NE9G17    29.88F
SILVER BAY     RAIN      52  48  87 E18G25    29.91F
GRAND MARAIS     N/A     49  43  80 NE13      29.93F
G MARAIS ARPRT CLOUDY    55  45  67 NE6       29.98S
$$
MNZ029>031-032-039>041-046>048-054>057-064-260200-
   West Central Minnesota

CITY           SKY/WX    TMP DP  RH WIND       PRES   REMARKS
FERGUS FALLS   CLEAR     70  61  73 N9        29.71S
WHEATON        CLEAR     73  64  73 CALM      29.75S
MORRIS         PTCLDY    75  55  50 SW9       29.74S
ALEXANDRIA     CLEAR     73  58  59 SW6       29.76F
ELBOW LAKE     FAIR      70  62  75 W5        29.75S
WADENA         CLOUDY    70  63  78 SE7       29.76S
GLENWOOD       CLEAR     73  61  64 SW6       29.77S
APPLETON       PTCLDY    79  55  44 W9        29.75R
ORTONVILLE     CLEAR     75  55  50 W8        29.75R
MADISON        PTCLDY    77  55  47 W7        29.76S
WILLMAR        FAIR      75  63  64 SW7       29.77S
$$
MNZ033>034-036-042>043-049>051-058-059-260200-
   Central Minnesota

CITY           SKY/WX    TMP DP  RH WIND       PRES   REMARKS
ST CLOUD       CLOUDY    68  64  87 VRB6G16   29.79S
SAUK CENTRE    FAIR      73  60  64 SW3       29.77S
PAYNESVILLE    PTCLDY    74  63  67 S3        29.77F
AITKIN         CLOUDY    57  50  77 E10G17    29.83F
PINE RIVER     CLOUDY    61  55  82 SW6       29.86R
BRAINERD       MOCLDY    59  56  89 E8G18     29.82R
STAPLES        CLOUDY    64  59  82 E9        29.78S
LONG PRAIRIE   FAIR      70  63  78 CALM      29.77F
LITTLE FALLS   TSTM      63  59  88 NE8G16    29.78F
LITCHFIELD     CLEAR     75  66  73 CALM      29.78S
BUFFALO        CLEAR     73  64  73 E6        29.80S
MAPLE LAKE     CLEAR     75  67  76 SE5       29.80S
HUTCHINSON     MOCLDY    77  66  68 SW3       29.79S
$$
MNZ037-044-045-052-053-260200-
   East Central Minnesota

CITY           SKY/WX    TMP DP  RH WIND       PRES   REMARKS
PRINCETON      CLOUDY    66  63  88 NE9       29.81F
MORA           CLOUDY    59  54  82 E7        29.87S
CAMBRIDGE      CLOUDY    64  55  72 NE7       29.81F
RUSH CITY      CLOUDY    61  58  90 NE5       29.85S
MOOSE LAKE     CLOUDY    46  46 100 E5        29.87S
HINCKLEY       CLOUDY    57  55  94 NE5       29.87R
CLOQUET        CLOUDY    48  46  93 E10G21    29.89S
MCGREGOR       CLOUDY    54  50  87 SE10      29.87R
$$
MNZ071>073-080-081-089-090-097-098-260200-
   Southwest Minnesota

CITY           SKY/WX    TMP DP  RH WIND       PRES   REMARKS
MONTEVIDEO     PTCLDY    79  55  44 W7        29.77S
GRANITE FALLS  CLEAR     79  58  48 SW10      29.77S
CANBY          PTCLDY    79  59  50 SW7       29.77F
MARSHALL       CLEAR     77  59  53 W9        29.77F
REDWOOD FALLS  CLEAR     77  58  51 SW7       29.77S
OLIVIA         CLEAR     73  59  60 SW7       29.76F
PIPESTONE      CLEAR     75  61  60 W6        29.80S
WINDOM         LGT RAIN  77  59  53 CALM      29.80S
WORTHINGTON    CLEAR     76  63  64 SW5       29.80F
JACKSON        CLEAR     77  55  47 SW5       29.82S
TRACY          CLEAR     77  62  58 W3        29.78F
SLAYTON        CLEAR     75  58  55 SW6       29.80F
$$
MNZ065>067-074>077-082>085-091>093-260200-
   South Central Minnesota

CITY           SKY/WX    TMP DP  RH WIND       PRES   REMARKS
MANKATO        CLEAR     79  57  47 SW8       29.80R
NEW ULM        CLEAR     75  61  60 W6        29.78S
ST JAMES       CLEAR     73  55  53 SW3       29.80S
FAIRMONT       CLEAR     79  54  41 W6        29.80S
GLENCOE        CLEAR     77  68  73 CALM      29.78S
FARIBAULT      CLEAR     77  63  61 CALM      29.80S
OWATONNA       CLEAR     77  64  65 CALM      29.80S
WASECA         CLEAR     77  63  61 W8        29.81S
ALBERT LEA     CLEAR     79  57  47 CALM      29.81R
$$
MNZ078>079-086>088-094>096-260200-
   Southeast Minnesota

CITY           SKY/WX    TMP DP  RH WIND       PRES   REMARKS
ROCHESTER      CLEAR     73  66  78 S9        29.83R
RED WING       CLOUDY    72  64  78 CALM      29.81R
STANTON        CLEAR     76  63  63 CALM      29.79S
DODGE CENTER   PTCLDY    75  64  69 S5        29.82S
WINONA         CLEAR     73  63  68 CALM      29.82R
AUSTIN         CLEAR     73  64  73 S5        29.82S
PRESTON        CLEAR     73  61  67 SW7       29.84S
$$
ABBREVIATIONS USED IN REMARKS
   TC - TEMPERATURES IN CELSIUS
  WCI - WIND CHILL INDEX
   HX - HEAT INDEX
  VSB - VISIBILITY
$$



USA.gov is the U.S. government's official web portal to all federal, state and local government web resources and services.